Regional Weather Roundup
Issued by NWS

Home | Current Version | Previous Version | Graphics & Text | Print | Product List | Glossary Off
Versions: 1 2 3 4 5 6 7 8 9 10 11 12 13 14 15 16 17 18 19 20 21 22 23 24 25 26 27 28 29 30 31 32 33 34 35 36 37 38 39 40 41 42 43 44 45 46 47 48 49 50

738
ASUS43 KDMX 250601
RWRIA

WEATHER ROUNDUP FOR IOWA
NATIONAL WEATHER SERVICE DES MOINES IA
100 AM CDT SAT MAR 25 2017

NOTE: "FAIR" INDICATES FEW OR NO CLOUDS BELOW 12,000 FEET WITH NO
SIGNIFICANT WEATHER AND/OR OBSTRUCTIONS TO VISIBILITY.

* - THESE STATIONS ARE NOT NWS STATIONS...THUS NOT UNDER NWS
QUALITY CONTROL.  THEY ALSO DO NOT REPORT WEATHER SUCH
AS PRECIPITATION OR FOG.

IAZ001>003-012>014-020>022-031>034-043>046-250700-
   NORTHWEST IOWA

CITY           SKY/WX    TMP DP  RH WIND       PRES   REMARKS
CARROLL *      CLOUDY    41  41 100 NE18G26   29.99S
CHEROKEE *     CLOUDY    39  38  99 NE13      30.04F FOG     WCI  31
LE MARS *      CLOUDY    39  37  93 N14       30.08R FOG     WCI  31
ORANGE CITY *  CLOUDY    37  37 100 NE10G17   30.07R FOG     WCI  30
SHELDON *      CLOUDY    37  37 100 NE17      30.06S FOG     WCI  28
SIOUX CITY     CLOUDY    40  39  97 N13       30.06S FOG     WCI  32
6HR MIN TEMP:  40; 6HR MAX TEMP:  43; 6HR PCP:  0.16;

SPENCER        CLOUDY    39  37  92 NE16      30.07R WCI  30
6HR MIN TEMP:  39; 6HR MAX TEMP:  42;

STORM LAKE *   CLOUDY    39  37  93 NE22G29   30.02F FOG     WCI  29
$$

IAZ055>058-069>071-079>083-090>094-250700-
   SOUTHWEST IOWA

CITY           SKY/WX    TMP DP  RH WIND       PRES   REMARKS
ATLANTIC *     LGT RAIN  41  41 100 NE16G24   29.95S
AUDUBON *      CLOUDY    39  37  93 NE14G23   29.97F WCI  31
CLARINDA *       N/A     43  43 100 NE14G21   29.92F FOG
COUNCIL BLFS * CLOUDY    41  41 100 N16       29.95F
CRESTON *      CLOUDY    43  43 100 NE21G26   29.91F FOG
HARLAN  *      CLOUDY    41  41 100 NE18G26   29.99S
LAMONI         CLOUDY    45  44  97 NE15      29.89S
6HR MIN TEMP:  45; 6HR MAX TEMP:  55; 6HR PCP:  0.11;

RED OAK *      RAIN      43  43 100 NE15      29.93F
SHENANDOAH *   CLOUDY    43  43 100 NE15G22   29.91F
$$

IAZ047>049-059>061-072>074-084-250700-
   CENTRAL IOWA

CITY           SKY/WX    TMP DP  RH WIND       PRES   REMARKS
AMES           CLOUDY    41  41 100 NE16      29.99S
6HR MIN TEMP:  41; 6HR MAX TEMP:  44; 6HR PCP:  0.06;

ANKENY *       CLOUDY    43  41  93 NE15      29.98S
BOONE *        CLOUDY    41  41 100 NE21G29   29.97F
CHARITON *     CLOUDY    45  45 100 NE14      29.92S FOG
DES MOINES     DRIZZLE   44  42  93 NE13      29.96F FOG
6HR MIN TEMP:  44; 6HR MAX TEMP:  48; 6HR PCP:  0.01;

GRINNELL*      CLOUDY    43  42  96 NE17      29.97S FOG
MARSHALLTOWN   CLOUDY    41  40  96 NE18      29.98F
6HR MIN TEMP:  41; 6HR MAX TEMP:  44; 6HR PCP:  0.02;

NEWTON *       CLOUDY    43  43 100 NE16      29.95S FOG
PELLA *        CLOUDY    45  44  97 E5        29.96S FOG
PERRY *        CLOUDY    42  40  95 NE15G22   29.98F
$$

IAZ004>006-015-016-023>025-035-036-250700-
   NORTH CENTRAL IOWA

CITY           SKY/WX    TMP DP  RH WIND       PRES   REMARKS
ALGONA *       CLOUDY    39  39 100 NE16      30.05S FOG     WCI  30
CLARION *      CLOUDY    39  39 100 NE18      30.03S WCI  30
ESTHERVILLE    CLOUDY    37  37 100 NE14      30.08F FOG     WCI  28
6HR MIN TEMP:  37; 6HR MAX TEMP:  40;

FORT DODGE *   CLOUDY    39  36  87 NE14      30.04S WCI  31
MASON CITY     CLOUDY    39  37  92 NE15      30.06F WCI  31
6HR MIN TEMP:  39; 6HR MAX TEMP:  40; 6HR PCP:  0.01;

FOREST CITY *  CLOUDY    37  37 100 NE12G23   30.07F FOG     WCI  30
WEBSTER CITY * CLOUDY    41  39  93 NE18G26   29.99S
IOWA FALLS *   CLOUDY    40  38  93 NE18G24   30.03S WCI  31
$$

IAZ007>011-017>019-026>030-037>042-050>054-066-250700-
   NORTHEAST IOWA

CITY           SKY/WX    TMP DP  RH WIND       PRES   REMARKS
CEDAR RAPIDS   LGT RAIN  44  44 100 NE14      29.98F FOG
6HR MIN TEMP:  44; 6HR MAX TEMP:  50; 6HR PCP:  0.06;

CHARLES CITY * CLOUDY    39  39 100 NE16      30.05F WCI  30
CLINTON *      CLOUDY    44  42  93 E18       30.01F
DECORAH *      MIX PCPN  37  36  93 NE12G18   30.07F WCI  30
DUBUQUE        CLOUDY    39  38  96 NE17G23   30.04S FOG     WCI  30
6HR MIN TEMP:  39; 6HR MAX TEMP:  51; 6HR PCP:  0.02;

MONTICELLO *   LGT RAIN  41  41 100 NE13G24   30.02F
OELWEIN *      CLOUDY    39  39 100 E17       30.04S WCI  30
WATERLOO       CLOUDY    40  37  89 NE15      30.04S WCI  32
6HR MIN TEMP:  40; 6HR MAX TEMP:  43; 6HR PCP:  0.05;

$$

IAZ064-065-067-068-078-250700-
   EAST CENTRAL IOWA

CITY           SKY/WX    TMP DP  RH WIND       PRES   REMARKS
DAVENPORT      CLOUDY    47  44  90 E17       30.00S FOG
6HR MIN TEMP:  47; 6HR MAX TEMP:  57; 6HR PCP:  0.28;

IOWA CITY      CLOUDY    49  46  90 NE15      29.98F FOG
6HR MIN TEMP:  49; 6HR MAX TEMP:  56; 6HR PCP:  0.08;

MUSCATINE *    CLOUDY    55  54  94 N5        29.97R FOG
QUAD CITIES    CLOUDY    48  45  89 E17       29.99R
6HR MIN TEMP:  48; 6HR MAX TEMP:  59; 6HR PCP:  0.18;

$$

IAZ062-063-075>077-085>089-095>099-250700-
   SOUTHEAST IOWA

CITY           SKY/WX    TMP DP  RH WIND       PRES   REMARKS
BURLINGTON     LGT RAIN  55  55 100 NE10      29.93F FOG
6HR MIN TEMP:  55; 6HR MAX TEMP:  57; 6HR PCP:  0.23;

FAIRFIELD *    CLOUDY    54  54 100 NE13      29.93S FOG
FORT MADISON * LGT RAIN  55  54  94 E10       29.93F
KEOKUK *       CLOUDY    55  55 100 E12       29.92S
OSKALOOSA *    CLOUDY    47  46  98 NE15      29.95S FOG
CENTERVILLE *  CLOUDY    50  50 100 NE3       29.93F FOG
OTTUMWA        LGT RAIN  50  50 100 NE13      29.94S FOG
6HR MIN TEMP:  49; 6HR MAX TEMP:  56; 6HR PCP:  0.20;

WASHINGTON *   CLOUDY    54  54 100 NE10      29.96S FOG
$$

ABBREVIATIONS USED IN REMARKS
   TC - TEMPERATURES IN CELSIUS
  WCI - WIND CHILL INDEX
   HX - HEAT INDEX
  VSB - VISIBILITY
$$





USA.gov is the U.S. government's official web portal to all federal, state and local government web resources and services.